Regional Weather Roundup
Issued by NWS Newport/Morehead, NC

Current Version | Previous Version | Text Only | Print | Product List | Glossary On
Versions: 1 2 3 4 5 6 7 8 9 10 11 12 13 14 15 16 17 18 19 20 21 22 23 24 25 26 27 28 29 30 31 32 33 34 35 36 37 38 39 40 41 42 43 44 45 46 47 48 49 50
000
ASUS42 KMHX 031025
RWRMHX
WEATHER ROUNDUP FOR EASTERN NORTH CAROLINA
NATIONAL WEATHER SERVICE NEWPORT/MOREHEAD CITY NC
600 AM EDT SUN MAY 03 2015

NOTE: "FAIR" INDICATES FEW OR NO CLOUDS BELOW 12,000 FEET
WITH NO SIGNIFICANT WEATHER AND/OR OBSTRUCTIONS TO VISIBILITY

NCZ015>017-031-032-045>047-102-103-031100-
NORTH COAST

CITY           SKY/WX    TMP DP  RH WIND       PRES   REMARKS
EDENTON        CLEAR     55  51  88 W6        30.12R
ELIZABETH CITY CLEAR     48  47  96 SW6       30.11R
KITTY HAWK     SUNNY     54  52  92 W5        30.09S
MANTEO         CLEAR     53  51  94 W6        30.11S

$$

NCZ045>047-081-094-103-104-031100-
CENTRAL COAST

CITY           SKY/WX    TMP DP  RH WIND       PRES   REMARKS
FRISCO         CLEAR     50  50 100 W3        30.11R
SWANQUARTER      N/A     57 N/A N/A W2        30.09R

$$

NCZ095-097-098-100-101-031100-
SOUTHERN COAST

CITY           SKY/WX    TMP DP  RH WIND       PRES   REMARKS
BEAUFORT       CLEAR     51  49  92 CALM      30.12R
CEDAR ISLAND     N/A     55 N/A N/A SW3       30.15S
JACKSONVILLE   CLEAR     48  46  93 CALM      30.12S
PINEY ISLAND   SUNNY    N/A N/A N/A SW6       30.11S
WILMINGTON     PTCLDY    50  48  93 CALM      30.13R FOG


$$

NCZ011>013-027>030-043-044-078>080-089-090>093-098-031100-
COASTAL PLAIN

CITY           SKY/WX    TMP DP  RH WIND       PRES   REMARKS
AHOSKIE        CLEAR     44  44  98 CALM      30.12R FOG
CLINTON        CLEAR     48  48 100 CALM      30.13S
ELIZABETHTOWN  CLEAR     51  51  99 CALM      30.13R FOG
GOLDSBORO      CLEAR     47  47 100 E1        30.11R
GREENVILLE     CLEAR     52  52 100 CALM      30.13S FOG
HAVELOCK       CLEAR     47  45  93 W3        30.13S
KENANSVILLE    CLEAR     44  44  99 CALM      30.14R
KINSTON        CLEAR     47  47  99 CALM      30.13R FOG
NEW BERN       CLEAR     48  44  86 CALM      30.13S
RICHLANDS      CLOUDY    45  39  81 CALM      30.14R VSB 1
ROCKY MOUNT    CLEAR     47  46  97 CALM      30.12R FOG
WASHINGTON     CLEAR     49  48  97 CALM      30.13R
WHITEVILLE     FOG       51  50  96 SW3       30.12S VSB 1/2

$$

AMZ130-135-150-152-154-156-158-170-250-252-270-ANZ085-086-088-633-658-670-031100-
MARINE OBSERVATIONS

STATION/POSITION TIME  TEMP    WIND        PRES    WAVE   SWELL
                       AIR SEA DIR/SP/G            HT/PER HT/PER
                 (UTC) (F)     (DEG/KT/KT) (MB)    (FT/S) (FT/S)
CHESAPEAKE LIGHT 1000   55     240/ 10/ 10 1019.3
64 E VA BEACH    0950   54 56  260/  4/  6 1018.9    6/11   5/11
DUCK             1000   57 53  240/  8/ 10 1018.3
2 E DUCK         0911      54                N/A     6/11   3/11
OREGON INLET     1000   56 56  250/  5/  6 1019.4
13E OREGON INLT  1000      50                N/A     6/11   3/11
HATTERAS CG      1000   59 60  270/  5/  7 1018.9
DIAMOND BUOY     0950   57     300/  6/  6 1019.5    5/11   5/11
CAPE LOOKOUT     1000   60     260/  4/  4 1019.6
BEAUFORT LAB     1000   57 62  330/  1/  1 1019.0
27 SE WRIGHTSVLE 1000   64 71  350/  6/  6   N/A
5 SE WRIGHTSVLE  0908   64 66  300/  4/  6 1019.8
225 S CAPE HAT   0950   65 69  350/ 16/ 19 1019.2    9/11   7/11
41 SE CHARLESTON 0950   70 72  270/  6/  8 1019.6    3/11   3/11

$$


USA.gov is the U.S. government's official web portal to all federal, state and local government web resources and services.